EST,Max TemperatureF,Mean TemperatureF,Min TemperatureF,Max Dew PointF,MeanDew PointF,Min DewpointF,Max Humidity, Mean Humidity, Min Humidity, Max Sea Level PressureIn, Mean Sea Level PressureIn, Min Sea Level PressureIn, Max VisibilityMiles, Mean VisibilityMiles, Min VisibilityMiles, Max Wind SpeedMPH, Mean Wind SpeedMPH, Max Gust SpeedMPH,PrecipitationIn, CloudCover, Events, WindDirDegrees
2013-1-1,30,22,15,21,13,8,80,64,51,30.84,30.11,30.01,10,10,10,9,6,,0.00,6,,325
2013-1-2,24,18,12,18,14,9,92,76,68,30.94,30.23,30.07,10,10,10,10,5,,0.00,6,,240
2013-1-3,30,24,17,25,16,6,82,72,59,30.19,30.13,30.05,10,9,6,14,10,23,0.00,7,,246
2013-1-4,28,26,24,23,19,16,80,71,61,30.21,30.11,30.02,10,10,9,21,13,30,0.00,3,,245
2013-1-5,33,24,17,30,23,15,93,84,72,30.33,30.18,30.04,10,6,2,14,7,,0.00,4,Snow,224
2013-1-6,36,34,33,34,30,25,100,84,70,30.27,30.03,29.92,10,8,3,14,10,21,0.00,8,Rain-Snow,264
2013-1-7,35,32,30,28,24,21,85,73,64,30.40,30.30,30.19,10,10,9,21,7,31,0.00,3,,227
2013-1-8,36,31,26,27,25,21,84,77,70,30.28,30.23,30.19,8,7,5,10,8,,0.00,0,,207
2013-1-9,46,39,32,32,27,20,82,62,37,30.45,30.19,30.05,10,10,8,23,12,33,0.00,1,,246
2013-1-10,39,32,26,33,28,23,89,79,60,30.61,30.48,30.23,10,10,8,9,5,,0.01,1,Rain,122
2013-1-11,55,45,35,50,41,33,100,92,74,30.19,29.93,29.77,10,7,2,17,8,26,0.69,6,Rain,160
2013-1-12,59,52,46,51,47,44,97,85,69,29.95,29.90,29.86,10,9,3,13,8,17,0.00,0,,205
2013-1-13,50,42,33,48,39,36,100,92,81,30.03,29.87,29.74,10,8,2,15,8,23,0.71,8,Rain,329
2013-1-14,32,28,23,27,16,14,92,67,56,30.45,30.33,30.06,10,10,10,14,9,23,0.00,4,,302
2013-1-15,30,24,18,20,17,14,86,74,54,30.46,30.37,30.18,10,10,9,8,1,,0.00,0,,170
2013-1-16,37,30,24,25,20,16,85,64,41,30.14,29.95,29.82,10,10,8,16,5,29,0.00,4,,257
2013-1-17,36,28,19,27,20,1,79,62,44,30.33,30.15,29.98,10,10,10,17,9,25,0.00,5,,312
2013-1-18,37,26,16,21,13,4,71,59,50,30.47,30.29,29.99,10,10,10,25,9,34,0.00,3,,230
2013-1-19,46,41,36,33,28,22,70,58,51,29.98,29.83,29.58,10,10,10,22,18,36,0.00,1,,230
2013-1-20,44,31,17,33,8,3,68,52,38,30.93,30.11,29.55,10,10,10,29,19,53,0.00,6,,286
2013-1-21,19,13,6,14,5,-8,81,65,45,30.87,30.09,29.95,10,8,0,18,9,28,0.00,6,Fog-Snow,286
2013-1-22,10,6,1,0,-7,-15,70,56,46,30.31,30.26,30.14,10,10,10,16,10,23,0.00,4,,285
2013-1-23,17,11,5,11,3,-5,84,68,51,30.31,30.20,30.08,10,8,3,14,8,17,0.00,7,Snow,251
2013-1-24,21,16,12,11,5,-2,85,66,38,30.60,30.46,30.14,10,9,2,14,7,21,0.00,3,Snow,353
2013-1-25,19,17,15,16,12,6,88,77,60,30.80,30.22,30.02,10,6,2,10,5,,0.01,8,Snow,172
2013-1-26,46,30,14,18,15,11,93,68,27,30.94,30.36,30.05,10,9,6,10,4,16,0.00,6,,295
2013-1-27,28,26,24,27,22,16,93,83,64,30.48,30.34,30.15,10,6,0,18,5,24,0.30,5,Fog-Rain-Snow,164
2013-1-28,46,38,30,45,38,27,100,94,86,30.15,29.98,29.85,10,5,0,15,9,20,0.19,8,Fog-Rain,212
2013-1-29,57,46,35,54,48,36,100,96,87,30.02,29.79,29.51,10,4,0,15,7,22,0.56,8,Fog-Rain,182
2013-1-30,61,50,37,55,47,32,100,88,81,29.49,29.25,29.13,10,9,3,26,14,44,0.27,6,Rain,222
2013-1-31,33,25,17,27,15,7,93,73,53,29.89,29.66,29.26,10,7,0,28,17,46,0.00,8,Fog-Snow,272